User: anonymous   Login
Location: Diebersbach
(48.5163°N, 8.0558°E)
Time: 02:18:25
(UTC+00:00)
Language:

CZ-4 R/B - Orbit

View from above orbital plane
View from above orbital plane
View from above satellite
View from above satellite

Ground track
Ground track

The orbit data is extracted from the following two-line orbital elements,

1 28059U 03049C   21269.50805990  .00000093  00000-0  34091-4 0  9999
2 28059  98.4948 197.5428 0050509 152.6934 207.6933 14.52669945950491
Epoch (UTC): 26 September 2021 12:11:36
Eccentricity: 0.0050509
inclination: 98.4948°
perigee height: 681 km
apogee height: 753 km
right ascension of ascending node: 197.5428°
argument of perigee: 152.6934°
revolutions per day: 14.52669945
mean anomaly at epoch: 207.6933°
orbit number at epoch: 95049

The dashed part of the orbit path shows where the satellite is in the earth's shadow,  

DLR